Year,Month,Day,Hour,Minute,Value (Times are PST for windspeed in km/hr)
2018,12,16,00,00,21.60
2018,12,16,00,01,22.70
2018,12,16,00,02,21.50
2018,12,16,00,03,24.60
2018,12,16,00,04,25.30
2018,12,16,00,05,26.30
2018,12,16,00,06,17.00
2018,12,16,00,07,19.10
2018,12,16,00,08,22.90
2018,12,16,00,09,17.40
2018,12,16,00,10,20.30
2018,12,16,00,11,21.80
2018,12,16,00,12,23.40
2018,12,16,00,13,20.90
2018,12,16,00,14,22.70
2018,12,16,00,15,18.60
2018,12,16,00,16,17.80
2018,12,16,00,17,17.30
2018,12,16,00,18,18.10
2018,12,16,00,19,23.70
2018,12,16,00,20,24.40
2018,12,16,00,21,15.90
2018,12,16,00,22,11.00
2018,12,16,00,23,14.60
2018,12,16,00,24,11.80
2018,12,16,00,25,18.50
2018,12,16,00,26,21.00
2018,12,16,00,27,19.30
2018,12,16,00,28,18.50
2018,12,16,00,29,27.90
2018,12,16,00,30,26.60
2018,12,16,00,31,16.70
2018,12,16,00,32,23.70
2018,12,16,00,33,25.80
2018,12,16,00,34,21.20
2018,12,16,00,35,19.60
2018,12,16,00,36,20.70
2018,12,16,00,37,27.30
2018,12,16,00,38,20.70
2018,12,16,00,39,20.20
2018,12,16,00,40,22.00
2018,12,16,00,41,26.70
2018,12,16,00,42,26.80
2018,12,16,00,43,22.90
2018,12,16,00,44,26.60
2018,12,16,00,45,34.50
2018,12,16,00,46,28.90
2018,12,16,00,47,29.90
2018,12,16,00,48,26.50
2018,12,16,00,49,19.10
2018,12,16,00,50,24.90
2018,12,16,00,51,22.30
2018,12,16,00,52,16.90
2018,12,16,00,53,28.30
2018,12,16,00,54,27.50
2018,12,16,00,55,26.10
2018,12,16,00,56,26.10
2018,12,16,00,57,30.30
2018,12,16,00,58,29.00
2018,12,16,00,59,22.20
2018,12,16,01,00,23.10
2018,12,16,01,01,23.10
2018,12,16,01,02,24.00
2018,12,16,01,03,32.20
2018,12,16,01,04,19.10
2018,12,16,01,05,22.50
2018,12,16,01,06,25.10
2018,12,16,01,07,25.60
2018,12,16,01,08,26.80
2018,12,16,01,09,19.90
2018,12,16,01,10,28.00
2018,12,16,01,11,31.00
2018,12,16,01,12,14.40
2018,12,16,01,13,16.20
2018,12,16,01,14,13.90
2018,12,16,01,15,36.10
2018,12,16,01,16,24.30
2018,12,16,01,17,19.60
2018,12,16,01,18,25.90
2018,12,16,01,19,24.30
2018,12,16,01,20,20.70
2018,12,16,01,21,13.10
2018,12,16,01,22,23.40
2018,12,16,01,23,29.10
2018,12,16,01,24,23.50
2018,12,16,01,25,15.60
2018,12,16,01,26,18.60
2018,12,16,01,27,22.60
2018,12,16,01,28,13.70
2018,12,16,01,29,22.90
2018,12,16,01,30,29.30
2018,12,16,01,31,24.90
2018,12,16,01,32,37.10
2018,12,16,01,33,28.40
2018,12,16,01,34,32.70
2018,12,16,01,35,27.00
2018,12,16,01,36,18.80
2018,12,16,01,37,18.40
2018,12,16,01,38,28.30
2018,12,16,01,39,22.50
2018,12,16,01,40,22.50
2018,12,16,01,41,23.10
2018,12,16,01,42,27.10
2018,12,16,01,43,30.70
2018,12,16,01,44,18.70
2018,12,16,01,45,28.70
2018,12,16,01,46,30.60
2018,12,16,01,47,23.60
2018,12,16,01,48,23.10
2018,12,16,01,49,18.70
2018,12,16,01,50,26.20
2018,12,16,01,51,28.50
2018,12,16,01,52,20.60
2018,12,16,01,53,29.50
2018,12,16,01,54,25.60
2018,12,16,01,55,33.30
2018,12,16,01,56,33.50
2018,12,16,01,57,23.80
2018,12,16,01,58,27.50
2018,12,16,01,59,28.80
2018,12,16,02,00,27.90
2018,12,16,02,01,28.50
2018,12,16,02,02,23.70
2018,12,16,02,03,15.90
2018,12,16,02,04,28.30
2018,12,16,02,05,23.20
2018,12,16,02,06,25.00
2018,12,16,02,07,28.00
2018,12,16,02,08,28.10
2018,12,16,02,09,23.80
2018,12,16,02,10,33.70
2018,12,16,02,11,24.10
2018,12,16,02,12,20.60
2018,12,16,02,13,34.00
2018,12,16,02,14,35.60
2018,12,16,02,15,23.10
2018,12,16,02,16,24.00
2018,12,16,02,17,25.30
2018,12,16,02,18,34.60
2018,12,16,02,19,31.90
2018,12,16,02,20,27.10
2018,12,16,02,21,23.90
2018,12,16,02,22,27.10
2018,12,16,02,23,20.10
2018,12,16,02,24,23.90
2018,12,16,02,25,20.30
2018,12,16,02,26,32.50
2018,12,16,02,27,30.10
2018,12,16,02,28,32.50
2018,12,16,02,29,29.90
2018,12,16,02,30,29.30
2018,12,16,02,31,21.50
2018,12,16,02,32,28.00
2018,12,16,02,33,24.90
2018,12,16,02,34,22.00
2018,12,16,02,35,23.40
2018,12,16,02,36,22.50
2018,12,16,02,37,27.90
2018,12,16,02,38,17.40
2018,12,16,02,39,32.80
2018,12,16,02,40,23.20
2018,12,16,02,41,24.10
2018,12,16,02,42,21.30
2018,12,16,02,43,19.30
2018,12,16,02,44,18.60
2018,12,16,02,45,29.10
2018,12,16,02,46,36.40
2018,12,16,02,47,39.10
2018,12,16,02,48,24.00
2018,12,16,02,49,23.20
2018,12,16,02,50,28.70
2018,12,16,02,51,21.40
2018,12,16,02,52,14.40
2018,12,16,02,53,16.70
2018,12,16,02,54,17.60
2018,12,16,02,55,30.60
2018,12,16,02,56,25.30
2018,12,16,02,57,25.60
2018,12,16,02,58,26.00
2018,12,16,02,59,43.90
2018,12,16,03,00,29.90
2018,12,16,03,01,24.80
2018,12,16,03,02,24.20
2018,12,16,03,03,31.70
2018,12,16,03,04,24.40
2018,12,16,03,05,26.30
2018,12,16,03,06,28.30
2018,12,16,03,07,30.00
2018,12,16,03,08,29.00
2018,12,16,03,09,32.70
2018,12,16,03,10,25.50
2018,12,16,03,11,23.80
2018,12,16,03,12,15.50
2018,12,16,03,13,21.90
2018,12,16,03,14,26.60
2018,12,16,03,15,29.50
2018,12,16,03,16,31.00
2018,12,16,03,17,27.70
2018,12,16,03,18,28.80
2018,12,16,03,19,28.80
2018,12,16,03,20,23.80
2018,12,16,03,21,25.40
2018,12,16,03,22,28.60
2018,12,16,03,23,19.00
2018,12,16,03,24,25.10
2018,12,16,03,25,31.70
2018,12,16,03,26,31.00
2018,12,16,03,27,32.20
2018,12,16,03,28,25.40
2018,12,16,03,29,29.30
2018,12,16,03,30,22.60
2018,12,16,03,31,23.60
2018,12,16,03,32,26.60
2018,12,16,03,33,24.90
2018,12,16,03,34,22.70
2018,12,16,03,35,20.00
2018,12,16,03,36,17.30
2018,12,16,03,37,16.50
2018,12,16,03,38,28.50
2018,12,16,03,39,18.50
2018,12,16,03,40,19.40
2018,12,16,03,41,23.10
2018,12,16,03,42,17.90
2018,12,16,03,43,17.80
2018,12,16,03,44,15.60
2018,12,16,03,45,21.20
2018,12,16,03,46,22.10
2018,12,16,03,47,30.20
2018,12,16,03,48,30.80
2018,12,16,03,49,26.40
2018,12,16,03,50,27.20
2018,12,16,03,51,20.20
2018,12,16,03,52,17.10
2018,12,16,03,53,26.60
2018,12,16,03,54,28.30
2018,12,16,03,55,21.30
2018,12,16,03,56,18.80
2018,12,16,03,57,18.10
2018,12,16,03,58,18.00
2018,12,16,03,59,23.80
2018,12,16,04,00,24.30
2018,12,16,04,01,22.10
2018,12,16,04,02,15.30
2018,12,16,04,03,23.70
2018,12,16,04,04,14.70
2018,12,16,04,05,17.60
2018,12,16,04,06,21.80
2018,12,16,04,07,13.70
2018,12,16,04,08,15.70
2018,12,16,04,09,11.70
2018,12,16,04,10,17.60
2018,12,16,04,11,34.50
2018,12,16,04,12,23.10
2018,12,16,04,13,19.40
2018,12,16,04,14,24.60
2018,12,16,04,15,25.40
2018,12,16,04,16,16.00
2018,12,16,04,17,20.10
2018,12,16,04,18,12.20
2018,12,16,04,19,12.70
2018,12,16,04,20,19.80
2018,12,16,04,21,17.10
2018,12,16,04,22,13.80
2018,12,16,04,23,14.90
2018,12,16,04,24,13.40
2018,12,16,04,25,20.10
2018,12,16,04,26,10.50
2018,12,16,04,27,13.90
2018,12,16,04,28,12.80
2018,12,16,04,29,12.50
2018,12,16,04,30,14.80
2018,12,16,04,31,15.00
2018,12,16,04,32,21.80
2018,12,16,04,33,21.80
2018,12,16,04,34,20.60
2018,12,16,04,35,16.30
2018,12,16,04,36,15.40
2018,12,16,04,37,11.60
2018,12,16,04,38,19.00
2018,12,16,04,39,27.70
2018,12,16,04,40,18.50
2018,12,16,04,41,17.60
2018,12,16,04,42,21.00
2018,12,16,04,43,23.10
2018,12,16,04,44,18.00
2018,12,16,04,45,13.00
2018,12,16,04,46,13.00
2018,12,16,04,47,15.00
2018,12,16,04,48,22.00
2018,12,16,04,49,16.80
2018,12,16,04,50,17.60
2018,12,16,04,51,14.40
2018,12,16,04,52,14.90
2018,12,16,04,53,16.70
2018,12,16,04,54,12.80
2018,12,16,04,55,17.60
2018,12,16,04,56,10.50
2018,12,16,04,57,10.70
2018,12,16,04,58,16.50
2018,12,16,04,59,16.80
2018,12,16,05,00,12.90
2018,12,16,05,01,6.30
2018,12,16,05,02,11.10
2018,12,16,05,03,9.00
2018,12,16,05,04,18.00
2018,12,16,05,05,12.40
2018,12,16,05,06,14.10
2018,12,16,05,07,15.10
2018,12,16,05,08,13.30
2018,12,16,05,09,9.10
2018,12,16,05,10,9.90
2018,12,16,05,11,11.00
2018,12,16,05,12,12.40
2018,12,16,05,13,18.10
2018,12,16,05,14,16.00
2018,12,16,05,15,9.80
2018,12,16,05,16,10.00
2018,12,16,05,17,11.70
2018,12,16,05,18,6.70
2018,12,16,05,19,9.10
2018,12,16,05,20,15.50
2018,12,16,05,21,15.00
2018,12,16,05,22,13.50
2018,12,16,05,23,14.50
2018,12,16,05,24,10.10
2018,12,16,05,25,12.90
2018,12,16,05,26,11.70
2018,12,16,05,27,15.60
2018,12,16,05,28,13.90
2018,12,16,05,29,14.30
2018,12,16,05,30,9.70
2018,12,16,05,31,12.90
2018,12,16,05,32,11.10
2018,12,16,05,33,10.00
2018,12,16,05,34,8.40
2018,12,16,05,35,9.40
2018,12,16,05,36,13.70
2018,12,16,05,37,12.80
2018,12,16,05,38,15.90
2018,12,16,05,39,14.50
2018,12,16,05,40,8.90
2018,12,16,05,41,10.10
2018,12,16,05,42,5.80
2018,12,16,05,43,13.50
2018,12,16,05,44,10.10
2018,12,16,05,45,10.30
2018,12,16,05,46,14.10
2018,12,16,05,47,13.20
2018,12,16,05,48,6.70
2018,12,16,05,49,11.50
2018,12,16,05,50,12.60
2018,12,16,05,51,11.20
2018,12,16,05,52,12.60
2018,12,16,05,53,10.40
2018,12,16,05,54,10.70
2018,12,16,05,55,10.70
2018,12,16,05,56,11.10
2018,12,16,05,57,7.50
2018,12,16,05,58,11.70
2018,12,16,05,59,13.90
2018,12,16,06,00,10.70
2018,12,16,06,01,9.80
2018,12,16,06,02,10.90
2018,12,16,06,03,6.70
2018,12,16,06,04,6.60
2018,12,16,06,05,9.20
2018,12,16,06,06,10.60
2018,12,16,06,07,12.70
2018,12,16,06,08,10.30
2018,12,16,06,09,8.80
2018,12,16,06,10,11.60
2018,12,16,06,11,10.10
2018,12,16,06,12,12.20
2018,12,16,06,13,7.00
2018,12,16,06,14,15.30
2018,12,16,06,15,9.10
2018,12,16,06,16,8.60
2018,12,16,06,17,8.80
2018,12,16,06,18,10.80
2018,12,16,06,19,12.20
2018,12,16,06,20,10.80
2018,12,16,06,21,12.20
2018,12,16,06,22,10.60
2018,12,16,06,23,12.40
2018,12,16,06,24,7.50
2018,12,16,06,25,9.10
2018,12,16,06,26,13.90
2018,12,16,06,27,10.90
2018,12,16,06,28,9.20
2018,12,16,06,29,9.20
2018,12,16,06,30,8.10
2018,12,16,06,31,6.30
2018,12,16,06,32,7.50
2018,12,16,06,33,9.80
2018,12,16,06,34,10.30
2018,12,16,06,35,13.60
2018,12,16,06,36,11.30
2018,12,16,06,37,9.10
2018,12,16,06,38,6.90
2018,12,16,06,39,10.90
2018,12,16,06,40,10.70
2018,12,16,06,41,9.20
2018,12,16,06,42,10.60
2018,12,16,06,43,12.30
2018,12,16,06,44,11.00
2018,12,16,06,45,10.60
2018,12,16,06,46,9.60
2018,12,16,06,47,8.50
2018,12,16,06,48,13.90
2018,12,16,06,49,12.20
2018,12,16,06,50,11.60
2018,12,16,06,51,12.90
2018,12,16,06,52,10.10
2018,12,16,06,53,11.00
2018,12,16,06,54,8.30
2018,12,16,06,55,10.90
2018,12,16,06,56,9.90
2018,12,16,06,57,14.40
2018,12,16,06,58,14.80
2018,12,16,06,59,18.20
2018,12,16,07,00,11.60
2018,12,16,07,01,9.60
2018,12,16,07,02,10.90
2018,12,16,07,03,14.50
2018,12,16,07,04,9.40
2018,12,16,07,05,9.60
2018,12,16,07,06,7.80
2018,12,16,07,07,13.20
2018,12,16,07,08,12.10
2018,12,16,07,09,12.30
2018,12,16,07,10,11.90
2018,12,16,07,11,10.80
2018,12,16,07,12,10.20
2018,12,16,07,13,16.00
2018,12,16,07,14,12.30
2018,12,16,07,15,10.60
2018,12,16,07,16,9.10
2018,12,16,07,17,11.10
2018,12,16,07,18,8.50
2018,12,16,07,19,7.90
2018,12,16,07,20,6.50
2018,12,16,07,21,12.70
2018,12,16,07,22,10.70
2018,12,16,07,23,16.20
2018,12,16,07,24,9.10
2018,12,16,07,25,10.80
2018,12,16,07,26,12.80
2018,12,16,07,27,9.40
2018,12,16,07,28,9.20
2018,12,16,07,29,12.90
2018,12,16,07,30,13.60
2018,12,16,07,31,11.40
2018,12,16,07,32,8.10
2018,12,16,07,33,13.10
2018,12,16,07,34,12.40
2018,12,16,07,35,9.40
2018,12,16,07,36,12.60
2018,12,16,07,37,8.80
2018,12,16,07,38,9.70
2018,12,16,07,39,14.40
2018,12,16,07,40,10.20
2018,12,16,07,41,8.90
2018,12,16,07,42,7.40
2018,12,16,07,43,15.30
2018,12,16,07,44,9.70
2018,12,16,07,45,6.00
2018,12,16,07,46,5.20
2018,12,16,07,47,8.40
2018,12,16,07,48,7.80
2018,12,16,07,49,10.30
2018,12,16,07,50,11.30
2018,12,16,07,51,9.30
2018,12,16,07,52,11.30
2018,12,16,07,53,7.80
2018,12,16,07,54,13.40
2018,12,16,07,55,10.70
2018,12,16,07,56,7.70
2018,12,16,07,57,8.80
2018,12,16,07,58,11.60
2018,12,16,07,59,9.50
2018,12,16,08,00,7.80
2018,12,16,08,01,7.50
2018,12,16,08,02,6.00
2018,12,16,08,03,7.90
2018,12,16,08,04,9.10
2018,12,16,08,05,8.60
2018,12,16,08,06,9.70
2018,12,16,08,07,11.90
2018,12,16,08,08,9.50
2018,12,16,08,09,12.50
2018,12,16,08,10,15.10
2018,12,16,08,11,11.70
2018,12,16,08,12,14.70
2018,12,16,08,13,14.70
2018,12,16,08,14,8.80
2018,12,16,08,15,11.10
2018,12,16,08,16,11.40
2018,12,16,08,17,12.90
2018,12,16,08,18,11.00
2018,12,16,08,19,9.60
2018,12,16,08,20,9.70
2018,12,16,08,21,13.90
2018,12,16,08,22,11.40
2018,12,16,08,23,12.30
2018,12,16,08,24,11.00
2018,12,16,08,25,12.40
2018,12,16,08,26,11.00
2018,12,16,08,27,10.60
2018,12,16,08,28,9.50
2018,12,16,08,29,7.80
2018,12,16,08,30,11.10
2018,12,16,08,31,11.30
2018,12,16,08,32,12.60
2018,12,16,08,33,14.50
2018,12,16,08,34,13.10
2018,12,16,08,35,9.20
2018,12,16,08,36,11.70
2018,12,16,08,37,9.20
2018,12,16,08,38,8.50
2018,12,16,08,39,10.70
2018,12,16,08,40,11.10
2018,12,16,08,41,10.80
2018,12,16,08,42,11.70
2018,12,16,08,43,13.80
2018,12,16,08,44,13.80
2018,12,16,08,45,11.30
2018,12,16,08,46,16.40
2018,12,16,08,47,12.00
2018,12,16,08,48,10.30
2018,12,16,08,49,11.40
2018,12,16,08,50,11.40
2018,12,16,08,51,12.50
2018,12,16,08,52,12.30
2018,12,16,08,53,13.50
2018,12,16,08,54,12.50
2018,12,16,08,55,6.90
2018,12,16,08,56,8.50
2018,12,16,08,57,7.80
2018,12,16,08,58,6.40
2018,12,16,08,59,10.90
2018,12,16,09,00,12.10
2018,12,16,09,01,10.40
2018,12,16,09,02,9.20
2018,12,16,09,03,7.70
2018,12,16,09,04,11.10
2018,12,16,09,05,12.70
2018,12,16,09,06,9.40
2018,12,16,09,07,10.30
2018,12,16,09,08,13.90
2018,12,16,09,09,7.60
2018,12,16,09,10,9.20
2018,12,16,09,11,6.70
2018,12,16,09,12,4.60
2018,12,16,09,13,6.70
2018,12,16,09,14,10.70
2018,12,16,09,15,14.20
2018,12,16,09,16,11.20
2018,12,16,09,17,8.10
2018,12,16,09,18,11.10
2018,12,16,09,19,10.10
2018,12,16,09,20,7.60
2018,12,16,09,21,10.50
2018,12,16,09,22,13.50
2018,12,16,09,23,11.60
2018,12,16,09,24,14.70
2018,12,16,09,25,10.80
2018,12,16,09,26,10.00
2018,12,16,09,27,5.30
2018,12,16,09,28,6.40
2018,12,16,09,29,10.30
2018,12,16,09,30,9.10
2018,12,16,09,31,5.90
2018,12,16,09,32,5.90
2018,12,16,09,33,9.00
2018,12,16,09,34,8.30
2018,12,16,09,35,9.40
2018,12,16,09,36,9.90
2018,12,16,09,37,8.80
2018,12,16,09,38,9.20
2018,12,16,09,39,9.80
2018,12,16,09,40,12.90
2018,12,16,09,41,11.10
2018,12,16,09,42,7.30
2018,12,16,09,43,8.60
2018,12,16,09,44,10.90
2018,12,16,09,45,12.20
2018,12,16,09,46,11.90
2018,12,16,09,47,16.20
2018,12,16,09,48,9.50
2018,12,16,09,49,11.20
2018,12,16,09,50,12.30
2018,12,16,09,51,11.40
2018,12,16,09,52,13.20
2018,12,16,09,53,15.00
2018,12,16,09,54,11.90
2018,12,16,09,55,15.50
2018,12,16,09,56,14.00
2018,12,16,09,57,15.00
2018,12,16,09,58,17.90
2018,12,16,09,59,13.60
2018,12,16,10,00,13.80
2018,12,16,10,01,14.40
2018,12,16,10,02,13.60
2018,12,16,10,03,10.30
2018,12,16,10,04,10.10
2018,12,16,10,05,12.60
2018,12,16,10,06,13.30
2018,12,16,10,07,15.10
2018,12,16,10,08,9.50
2018,12,16,10,09,8.00
2018,12,16,10,10,12.80
2018,12,16,10,11,10.60
2018,12,16,10,12,14.10
2018,12,16,10,13,14.90
2018,12,16,10,14,11.20
2018,12,16,10,15,14.20
2018,12,16,10,16,8.60
2018,12,16,10,17,15.40
2018,12,16,10,18,16.10
2018,12,16,10,19,8.30
2018,12,16,10,20,14.40
2018,12,16,10,21,12.80
2018,12,16,10,22,13.10
2018,12,16,10,23,8.10
2018,12,16,10,24,16.80
2018,12,16,10,25,16.30
2018,12,16,10,26,13.80
2018,12,16,10,27,15.00
2018,12,16,10,28,18.40
2018,12,16,10,29,11.10
2018,12,16,10,30,10.40
2018,12,16,10,31,14.40
2018,12,16,10,32,11.90
2018,12,16,10,33,10.60
2018,12,16,10,34,13.70
2018,12,16,10,35,15.60
2018,12,16,10,36,14.80
2018,12,16,10,37,8.70
2018,12,16,10,38,14.90
2018,12,16,10,39,13.60
2018,12,16,10,40,13.40
2018,12,16,10,41,14.20
2018,12,16,10,42,12.50
2018,12,16,10,43,11.40
2018,12,16,10,44,14.70
2018,12,16,10,45,17.20
2018,12,16,10,46,9.70
2018,12,16,10,47,14.10
2018,12,16,10,48,15.10
2018,12,16,10,49,14.00
2018,12,16,10,50,13.10
2018,12,16,10,51,15.50
2018,12,16,10,52,17.30
2018,12,16,10,53,11.30
2018,12,16,10,54,13.40
2018,12,16,10,55,11.70
2018,12,16,10,56,11.20
2018,12,16,10,57,17.20
2018,12,16,10,58,16.60
2018,12,16,10,59,10.30
2018,12,16,11,00,11.80
2018,12,16,11,01,11.80
2018,12,16,11,02,11.10
2018,12,16,11,03,15.10
2018,12,16,11,04,12.40
2018,12,16,11,05,11.40
2018,12,16,11,06,12.10
2018,12,16,11,07,10.90
2018,12,16,11,08,14.60
2018,12,16,11,09,15.70
2018,12,16,11,10,13.50
2018,12,16,11,11,13.90
2018,12,16,11,12,15.70
2018,12,16,11,13,13.80
2018,12,16,11,14,13.70
2018,12,16,11,15,14.60
2018,12,16,11,16,12.30
2018,12,16,11,17,10.40
2018,12,16,11,18,12.70
2018,12,16,11,19,17.90
2018,12,16,11,20,12.60
2018,12,16,11,21,13.10
2018,12,16,11,22,6.70
2018,12,16,11,23,5.80
2018,12,16,11,24,8.80
2018,12,16,11,25,14.40
2018,12,16,11,26,11.60
2018,12,16,11,27,11.60
2018,12,16,11,28,17.50
2018,12,16,11,29,7.50
2018,12,16,11,30,10.40
2018,12,16,11,31,10.30
2018,12,16,11,32,9.00
2018,12,16,11,33,6.60
2018,12,16,11,34,9.50
2018,12,16,11,35,10.10
2018,12,16,11,36,6.00
2018,12,16,11,37,10.00
2018,12,16,11,38,9.90
2018,12,16,11,39,13.80
2018,12,16,11,40,11.80
2018,12,16,11,41,9.10
2018,12,16,11,42,11.10
2018,12,16,11,43,14.50
2018,12,16,11,44,11.00
2018,12,16,11,45,13.30
2018,12,16,11,46,11.70
2018,12,16,11,47,11.40
2018,12,16,11,48,15.50
2018,12,16,11,49,11.60
2018,12,16,11,50,14.40
2018,12,16,11,51,11.70
2018,12,16,11,52,15.70
2018,12,16,11,53,14.60
2018,12,16,11,54,8.60
2018,12,16,11,55,8.10
2018,12,16,11,56,10.50
2018,12,16,11,57,11.90
2018,12,16,11,58,8.70
2018,12,16,11,59,11.00
2018,12,16,12,00,10.10
2018,12,16,12,01,6.70
2018,12,16,12,02,6.00
2018,12,16,12,03,10.90
2018,12,16,12,04,11.20
2018,12,16,12,05,9.20
2018,12,16,12,06,10.30
2018,12,16,12,07,12.30
2018,12,16,12,08,13.00
2018,12,16,12,09,7.90
2018,12,16,12,10,12.10
2018,12,16,12,11,11.80
2018,12,16,12,12,8.20
2018,12,16,12,13,11.90
2018,12,16,12,14,10.40
2018,12,16,12,15,11.90
2018,12,16,12,16,11.80
2018,12,16,12,17,11.70
2018,12,16,12,18,7.70
2018,12,16,12,19,15.30
2018,12,16,12,20,13.30
2018,12,16,12,21,10.40
2018,12,16,12,22,11.70
2018,12,16,12,23,13.00
2018,12,16,12,24,12.60
2018,12,16,12,25,11.40
2018,12,16,12,26,9.70
2018,12,16,12,27,8.90
2018,12,16,12,28,7.20
2018,12,16,12,29,14.90
2018,12,16,12,30,12.00
2018,12,16,12,31,9.10
2018,12,16,12,32,9.80
2018,12,16,12,33,9.00
2018,12,16,12,34,6.60
2018,12,16,12,35,8.50
2018,12,16,12,36,9.40
2018,12,16,12,37,10.30
2018,12,16,12,38,10.80
2018,12,16,12,39,12.80
2018,12,16,12,40,11.70
2018,12,16,12,41,11.50
2018,12,16,12,42,11.10
2018,12,16,12,43,14.50
2018,12,16,12,44,9.80
2018,12,16,12,45,9.10
2018,12,16,12,46,7.10
2018,12,16,12,47,4.50
2018,12,16,12,48,12.20
2018,12,16,12,49,9.60
2018,12,16,12,50,9.40
2018,12,16,12,51,10.40
2018,12,16,12,52,12.20
2018,12,16,12,53,8.00
2018,12,16,12,54,6.40
2018,12,16,12,55,7.00
2018,12,16,12,56,10.00
2018,12,16,12,57,12.80
2018,12,16,12,58,12.70
2018,12,16,12,59,11.20
2018,12,16,13,00,7.60
2018,12,16,13,01,5.40
2018,12,16,13,02,9.80
2018,12,16,13,03,10.80
2018,12,16,13,04,6.30
2018,12,16,13,05,9.90
2018,12,16,13,06,6.80
2018,12,16,13,07,6.40
2018,12,16,13,08,8.50
2018,12,16,13,09,11.30
2018,12,16,13,10,8.10
2018,12,16,13,11,12.50
2018,12,16,13,12,11.70
2018,12,16,13,13,12.80
2018,12,16,13,14,8.90
2018,12,16,13,15,11.90
2018,12,16,13,16,12.40
2018,12,16,13,17,6.50
2018,12,16,13,18,4.10
2018,12,16,13,19,4.50
2018,12,16,13,20,3.90
2018,12,16,13,21,6.00
2018,12,16,13,22,9.70
2018,12,16,13,23,9.50
2018,12,16,13,24,3.70
2018,12,16,13,25,5.80
2018,12,16,13,26,9.80
2018,12,16,13,27,7.00
2018,12,16,13,28,7.40
2018,12,16,13,29,7.90
2018,12,16,13,30,8.80
2018,12,16,13,31,10.60
2018,12,16,13,32,5.40
2018,12,16,13,33,12.20
2018,12,16,13,34,11.10
2018,12,16,13,35,5.70
2018,12,16,13,36,5.80
2018,12,16,13,37,10.80
2018,12,16,13,38,10.30
2018,12,16,13,39,11.50
2018,12,16,13,40,10.00
2018,12,16,13,41,12.80
2018,12,16,13,42,11.30
2018,12,16,13,43,10.40
2018,12,16,13,44,7.30
2018,12,16,13,45,11.60
2018,12,16,13,46,9.90
2018,12,16,13,47,12.70
2018,12,16,13,48,9.60
2018,12,16,13,49,7.60
2018,12,16,13,50,4.50
2018,12,16,13,51,10.70
2018,12,16,13,52,9.50
2018,12,16,13,53,7.60
2018,12,16,13,54,5.50
2018,12,16,13,55,5.20
2018,12,16,13,56,3.20
2018,12,16,13,57,2.70
2018,12,16,13,58,8.20
2018,12,16,13,59,6.20
2018,12,16,14,00,7.40
2018,12,16,14,01,7.20
2018,12,16,14,02,7.50
2018,12,16,14,03,7.50
2018,12,16,14,04,9.40
2018,12,16,14,05,9.80
2018,12,16,14,06,12.00
2018,12,16,14,07,8.50
2018,12,16,14,08,11.60
2018,12,16,14,09,11.20
2018,12,16,14,10,6.90
2018,12,16,14,11,9.80
2018,12,16,14,12,8.60
2018,12,16,14,13,8.20
2018,12,16,14,14,11.50
2018,12,16,14,15,10.80
2018,12,16,14,16,9.50
2018,12,16,14,17,9.10
2018,12,16,14,18,10.20
2018,12,16,14,19,8.80
2018,12,16,14,20,7.70
2018,12,16,14,21,7.60
2018,12,16,14,22,5.70
2018,12,16,14,23,11.70
2018,12,16,14,24,7.90
2018,12,16,14,25,4.50
2018,12,16,14,26,1.60
2018,12,16,14,27,2.90
2018,12,16,14,28,4.90
2018,12,16,14,29,6.10
2018,12,16,14,30,9.20
2018,12,16,14,31,3.90
2018,12,16,14,32,3.30
2018,12,16,14,33,3.40
2018,12,16,14,34,2.10
2018,12,16,14,35,4.20
2018,12,16,14,36,2.80
2018,12,16,14,37,4.80
2018,12,16,14,38,7.10
2018,12,16,14,39,8.60
2018,12,16,14,40,8.50
2018,12,16,14,41,10.70
2018,12,16,14,42,9.20
2018,12,16,14,43,6.30
2018,12,16,14,44,8.90
2018,12,16,14,45,9.30
2018,12,16,14,46,7.10
2018,12,16,14,47,5.70
2018,12,16,14,48,3.30
2018,12,16,14,49,4.70
2018,12,16,14,50,8.80
2018,12,16,14,51,10.00
2018,12,16,14,52,8.50
2018,12,16,14,53,7.50
2018,12,16,14,54,4.50
2018,12,16,14,55,4.40
2018,12,16,14,56,5.00
2018,12,16,14,57,8.80
2018,12,16,14,58,10.50
2018,12,16,14,59,10.10
2018,12,16,15,00,6.60
2018,12,16,15,01,9.20
2018,12,16,15,02,8.20
2018,12,16,15,03,7.90
2018,12,16,15,04,10.40
2018,12,16,15,05,8.40
2018,12,16,15,06,6.70
2018,12,16,15,07,6.40
2018,12,16,15,08,6.70
2018,12,16,15,09,4.80
2018,12,16,15,10,2.90
2018,12,16,15,11,7.80
2018,12,16,15,12,7.30
2018,12,16,15,13,4.40
2018,12,16,15,14,5.10
2018,12,16,15,15,5.20
2018,12,16,15,16,4.20
2018,12,16,15,17,9.80
2018,12,16,15,18,11.90
2018,12,16,15,19,11.00
2018,12,16,15,20,7.40
2018,12,16,15,21,5.60
2018,12,16,15,22,4.70
2018,12,16,15,23,7.00
2018,12,16,15,24,9.40
2018,12,16,15,25,8.60
2018,12,16,15,26,5.20
2018,12,16,15,27,6.00
2018,12,16,15,28,8.70
2018,12,16,15,29,6.00
2018,12,16,15,30,7.80
2018,12,16,15,31,5.10
2018,12,16,15,32,6.10
2018,12,16,15,33,6.60
2018,12,16,15,34,11.00
2018,12,16,15,35,6.30
2018,12,16,15,36,10.10
2018,12,16,15,37,8.30
2018,12,16,15,38,5.80
2018,12,16,15,39,6.00
2018,12,16,15,40,9.40
2018,12,16,15,41,7.80
2018,12,16,15,42,8.00
2018,12,16,15,43,8.20
2018,12,16,15,44,6.60
2018,12,16,15,45,7.50
2018,12,16,15,46,5.00
2018,12,16,15,47,7.60
2018,12,16,15,48,5.80
2018,12,16,15,49,6.40
2018,12,16,15,50,8.40
2018,12,16,15,51,6.70
2018,12,16,15,52,5.60
2018,12,16,15,53,5.20
2018,12,16,15,54,8.50
2018,12,16,15,55,4.60
2018,12,16,15,56,7.80
2018,12,16,15,57,7.60
2018,12,16,15,58,6.30
2018,12,16,15,59,9.20
2018,12,16,16,00,6.20
2018,12,16,16,01,7.40
2018,12,16,16,02,10.80
2018,12,16,16,03,11.40
2018,12,16,16,04,9.80
2018,12,16,16,05,7.90
2018,12,16,16,06,6.90
2018,12,16,16,07,6.70
2018,12,16,16,08,10.30
2018,12,16,16,09,10.90
2018,12,16,16,10,6.00
2018,12,16,16,11,6.90
2018,12,16,16,12,2.90
2018,12,16,16,13,5.90
2018,12,16,16,14,10.10
2018,12,16,16,15,7.10
2018,12,16,16,16,7.60
2018,12,16,16,17,8.50
2018,12,16,16,18,11.00
2018,12,16,16,19,5.80
2018,12,16,16,20,6.10
2018,12,16,16,21,9.20
2018,12,16,16,22,10.20
2018,12,16,16,23,5.70
2018,12,16,16,24,4.80
2018,12,16,16,25,6.50
2018,12,16,16,26,6.60
2018,12,16,16,27,8.00
2018,12,16,16,28,6.60
2018,12,16,16,29,9.40
2018,12,16,16,30,5.60
2018,12,16,16,31,5.80
2018,12,16,16,32,5.30
2018,12,16,16,33,8.20
2018,12,16,16,34,10.20
2018,12,16,16,35,7.60
2018,12,16,16,36,5.00
2018,12,16,16,37,3.70
2018,12,16,16,38,3.10
2018,12,16,16,39,6.10
2018,12,16,16,40,8.40
2018,12,16,16,41,6.30
2018,12,16,16,42,4.90
2018,12,16,16,43,3.10
2018,12,16,16,44,2.80
2018,12,16,16,45,5.80
2018,12,16,16,46,6.10
2018,12,16,16,47,6.20
2018,12,16,16,48,6.30
2018,12,16,16,49,6.90
2018,12,16,16,50,8.10
2018,12,16,16,51,5.40
2018,12,16,16,52,2.00
2018,12,16,16,53,2.30
2018,12,16,16,54,2.70
2018,12,16,16,55,1.90
2018,12,16,16,56,2.70
2018,12,16,16,57,1.90
2018,12,16,16,58,1.90
2018,12,16,16,59,0.20
2018,12,16,17,00,5.20
2018,12,16,17,01,5.50
2018,12,16,17,02,5.90
2018,12,16,17,03,3.60
2018,12,16,17,04,5.20
2018,12,16,17,05,5.20
2018,12,16,17,06,2.90
2018,12,16,17,07,4.40
2018,12,16,17,08,2.60
2018,12,16,17,09,1.90
2018,12,16,17,10,0.40
2018,12,16,17,11,0.10
2018,12,16,17,12,2.10
2018,12,16,17,13,1.60
2018,12,16,17,14,2.70
2018,12,16,17,15,0.40
2018,12,16,17,16,0.00
2018,12,16,17,17,0.00
2018,12,16,17,18,0.00
2018,12,16,17,19,0.70
2018,12,16,17,20,4.20
2018,12,16,17,21,3.40
2018,12,16,17,22,4.60
2018,12,16,17,23,4.60
2018,12,16,17,24,5.70
2018,12,16,17,25,4.60
2018,12,16,17,26,3.50
2018,12,16,17,27,2.10
2018,12,16,17,28,0.20
2018,12,16,17,29,2.00
2018,12,16,17,30,1.30
2018,12,16,17,31,3.90
2018,12,16,17,32,6.10
2018,12,16,17,33,5.80
2018,12,16,17,34,5.90
2018,12,16,17,35,6.30
2018,12,16,17,36,7.10